User: anonymous   Login
Location: Melbourne
(37.8170°S, 144.9670°E)
Time: 22:43:19
(UTC+11:00)
Language:

Aureole 2 Rocket - Orbit

View from above orbital plane
View from above orbital plane
View from above satellite
View from above satellite

Ground track
Ground track

The orbit data is extracted from the following two-line orbital elements,

1 07004U 73107B   14296.19826852  .00023630  00000-0  61575-3 0  7575
2 07004 073.9478 323.2386 0285749 076.6194 036.9553 15.06445090 89615
Epoch (UTC): 23 October 2014 04:45:30
Eccentricity: 0.0285749
inclination: 73.9478°
perigee height: 349 km
apogee height: 745 km
right ascension of ascending node: 323.2386°
argument of perigee: 76.6194°
revolutions per day: 15.06445090
mean anomaly at epoch: 36.9553°
orbit number at epoch: 8961

The dashed part of the orbit path shows where the satellite is in the earth's shadow,  

DLR